Flag for Canada Weather past 2 weeks in Fredericton, New Brunswick, Canada

Now
7 °F

Light snow. Sunny.


Feels Like: -11 °F
Forecast: -8 / 10 °F
Wind: 16 mph from West

Location: Fredericton

Current Time: Feb 1, 2015 at 9:44:23 AM

Latest Report: Feb 1, 2015 at 9:00 AM


Visibility: 8 mi

Pressure: 29.78 "Hg

Humidity: 66%

Dew point: -2 °F

Location of FrederictonLocation

Historic Weather in Fredericton — Graph

°F

Fredericton temperature yesterday

Maximum temperature yesterday: 25 °F (at 12:04 PM)
Minimum temperature yesterday: 12 °F (at 10:48 PM)
Average temperature yesterday: 20 °F

Past Weeks' High & Low Weather Summary

 TemperatureHumidityPressure
High46 °F (Jan 19, 8:56 AM)100% (Jan 19, 2:55 AM)30.36 "Hg (Jan 19, 2:55 AM)
Low-4 °F (Jan 17, 8:00 AM)39% (Jan 17, 4:02 PM)28.89 "Hg (Jan 25, 1:00 AM)
Average17 °F77%29.85 "Hg
* Reported Jan 17 8:00 AM — Feb 1 8:51 AM, Fredericton, Weather by CustomWeather, © 2014

Note: Actual official high and low records may vary slightly from our data, if they occured in-between our weather recording intervals... More about our weather records

Advertising

Fredericton weather history for previous 24 hours

 ConditionsComfort  
Time TempWeatherWind HumidityBarometerVisibility
8:51 AM
Feb 1
5 °FLight snow. Sunny.15 mph72%29.77 "Hg9 mi
8:00 AM5 °FOvercast.15 mph72%29.75 "Hg9 mi
7:00 AM3 °FLight snow. Clear.12 mph72%29.73 "Hg9 mi
6:58 AM3 °FLight snow. Clear.10 mph72%29.73 "Hg9 mi
6:00 AM5 °FClear.14 mph66%29.69 "Hg9 mi
5:53 AM5 °FClear.12 mph66%29.68 "Hg9 mi
5:00 AM5 °FLight snow. Passing clouds.14 mph66%29.66 "Hg9 mi
4:00 AM7 °FLight snow. Partly cloudy.18 mph66%29.65 "Hg7 mi
3:00 AM7 °FLight snow. Passing clouds.20 mph72%29.65 "Hg4 mi
2:51 AM7 °FLight snow. Passing clouds.16 mph78%29.65 "Hg5 mi
2:00 AM9 °FLight snow. Ice fog.18 mph85%29.63 "Hg1 mi
1:00 AM10 °FLight snow. Ice fog.20 mph85%29.63 "Hg1 mi
12:00 AM12 °FLight snow. Overcast.17 mph85%29.62 "Hg1 mi
11:00 PM
Jan 31
12 °FLight snow. Overcast.12 mph79%29.59 "Hg4 mi
10:48 PM12 °FLight snow. Overcast.14 mph79%29.59 "Hg5 mi
10:00 PM14 °FLight snow. Overcast.18 mph79%29.58 "Hg7 mi
9:49 PM14 °FLight snow. Overcast.16 mph79%29.58 "Hg6 mi
9:03 PM14 °FLight snow. Overcast.22 mph79%29.57 "Hg3 mi
8:00 PM16 °FLight snow. Overcast.22 mph86%29.54 "Hg1 mi
7:04 PM18 °FLight snow. Overcast.18 mph86%29.54 "Hg2 mi
6:56 PM18 °FLight snow. Overcast.24 mph86%29.53 "Hg2 mi
6:00 PM19 °FLight snow. Overcast.21 mph86%29.52 "Hg2 mi
5:59 PM19 °FLight snow. Overcast.21 mph86%29.52 "Hg2 mi
5:03 PM21 °FLight snow. Overcast.21 mph86%29.50 "Hg2 mi
4:00 PM23 °FLight snow. Cloudy.18 mph86%29.48 "Hg5 mi
3:00 PM23 °FLight snow. Mostly cloudy.23 mph93%29.45 "Hg1 mi
2:04 PM25 °FSnow. Ice fog.20 mph93%29.45 "Hg1 mi
1:00 PM25 °FSnow. Ice fog.22 mph93%29.49 "Hg1 mi
12:04 PM25 °FLight snow. Partly sunny.20 mph86%29.53 "Hg1 mi
11:00 AM23 °FLight snow. Overcast.22 mph86%29.54 "Hg7 mi
10:00 AM23 °FLight snow. Ice fog.18 mph93%29.56 "Hg1 mi
9:00 AM23 °FLight snow. Ice fog.21 mph86%29.57 "Hg1 mi
Weather by CustomWeather, © 2014

See weather overviewHow to use our weather pages